Location: Northam
(31.6525°S, 116.6655°E)
Time: 18:25:16
(UTC+08:00)

AAUSAT CUBESAT 2 - Pass Details

Date: 29 July 2021
Orbit: 572 x 587 km, 97.5° (Epoch: 18 September)

Event Time Altitude Azimuth Distance (km) Brightness Sun altitude
Rises 04:54:48 0° 11° (NNE) 2,774 ? -27.5°
Reaches altitude 10° 04:56:55 10° 11° (N) 1,886 ? -27.0°
Enters shadow 04:58:26 22° 10° (N) 1,277 ? -26.7°
